Time,TemperatureF,DewpointF,PressureIn,WindDirection,WindDirectionDegrees,WindSpeedMPH,WindSpeedGustMPH,Humidity,HourlyPrecipIn,Conditions,Clouds,dailyrainin,SoftwareType,DateUTC
2013-08-24 00:02:00,75.2,64.4,29.65,NE,44,0.0,0.0,67,0.00,,,0.00,WUHU216WMR968SP,2013-08-24 05:02:00,
2013-08-24 00:07:00,74.7,64.4,29.65,NE,44,0.0,0.0,67,0.00,,,0.00,WUHU216WMR968SP,2013-08-24 05:07:00,
2013-08-24 00:12:00,74.5,64.4,29.65,NE,44,0.0,0.0,67,0.00,,,0.00,WUHU216WMR968SP,2013-08-24 05:12:00,
2013-08-24 00:17:00,74.1,62.6,29.65,NE,44,0.0,0.0,68,0.00,,,0.00,WUHU216WMR968SP,2013-08-24 05:17:00,
2013-08-24 00:22:00,73.9,62.6,29.65,NE,44,0.0,0.0,68,0.00,,,0.00,WUHU216WMR968SP,2013-08-24 05:22:00,
2013-08-24 00:27:00,73.9,62.6,29.68,NE,44,0.0,0.0,71,0.00,,,0.00,WUHU216WMR968SP,2013-08-24 05:27:00,
2013-08-24 00:32:00,73.8,64.4,29.68,NE,44,0.0,0.0,75,0.00,,,0.00,WUHU216WMR968SP,2013-08-24 05:32:00,
2013-08-24 00:37:00,73.4,66.2,29.68,NE,44,0.0,0.0,77,0.00,,,0.00,WUHU216WMR968SP,2013-08-24 05:37:00,
2013-08-24 00:42:00,73.4,66.2,29.68,NE,44,0.0,0.0,78,0.00,,,0.00,WUHU216WMR968SP,2013-08-24 05:42:00,
2013-08-24 00:47:00,73.2,66.2,29.68,NE,44,0.0,0.0,79,0.00,,,0.00,WUHU216WMR968SP,2013-08-24 05:47:00,
2013-08-24 00:52:00,73.0,66.2,29.68,NE,44,0.0,0.0,79,0.00,,,0.00,WUHU216WMR968SP,2013-08-24 05:52:00,
2013-08-24 00:57:00,72.7,66.2,29.68,NE,44,0.0,0.0,79,0.00,,,0.00,WUHU216WMR968SP,2013-08-24 05:57:00,
2013-08-24 01:02:00,72.7,66.2,29.68,NE,44,0.0,0.0,80,0.00,,,0.00,WUHU216WMR968SP,2013-08-24 06:02:00,
2013-08-24 01:07:00,72.5,66.2,29.68,NE,44,0.0,0.0,80,0.00,,,0.00,WUHU216WMR968SP,2013-08-24 06:07:00,
2013-08-24 01:12:00,72.7,66.2,29.68,NE,44,0.0,0.0,80,0.00,,,0.00,WUHU216WMR968SP,2013-08-24 06:12:00,
2013-08-24 01:17:00,72.5,68.0,29.68,NE,44,0.0,0.0,81,0.00,,,0.00,WUHU216WMR968SP,2013-08-24 06:17:00,
2013-08-24 01:22:00,72.7,68.0,29.68,NE,44,0.0,0.0,82,0.00,,,0.00,WUHU216WMR968SP,2013-08-24 06:22:00,
2013-08-24 01:27:00,72.7,68.0,29.68,NE,44,0.0,0.0,82,0.00,,,0.00,WUHU216WMR968SP,2013-08-24 06:27:00,
2013-08-24 01:32:00,72.5,68.0,29.68,NE,44,0.0,0.0,83,0.00,,,0.00,WUHU216WMR968SP,2013-08-24 06:32:00,
2013-08-24 01:37:00,72.5,68.0,29.68,NE,44,0.0,0.0,83,0.00,,,0.00,WUHU216WMR968SP,2013-08-24 06:37:00,
2013-08-24 01:42:00,72.3,66.2,29.68,NE,44,0.0,0.0,83,0.00,,,0.00,WUHU216WMR968SP,2013-08-24 06:42:00,
2013-08-24 01:47:00,72.3,66.2,29.68,NE,44,0.0,0.0,82,0.00,,,0.00,WUHU216WMR968SP,2013-08-24 06:47:00,
2013-08-24 01:52:00,72.1,66.2,29.68,NE,44,0.0,0.0,82,0.00,,,0.00,WUHU216WMR968SP,2013-08-24 06:52:00,
2013-08-24 01:57:00,72.3,66.2,29.68,NE,44,0.0,0.0,83,0.00,,,0.00,WUHU216WMR968SP,2013-08-24 06:57:00,
2013-08-24 02:02:00,72.3,66.2,29.68,NE,44,0.0,0.0,84,0.00,,,0.00,WUHU216WMR968SP,2013-08-24 07:02:00,
2013-08-24 02:07:00,72.3,66.2,29.68,NE,44,0.0,0.0,84,0.00,,,0.00,WUHU216WMR968SP,2013-08-24 07:07:00,
2013-08-24 02:12:00,72.1,66.2,29.68,NE,44,0.0,0.0,85,0.00,,,0.00,WUHU216WMR968SP,2013-08-24 07:12:00,
2013-08-24 02:17:00,72.1,66.2,29.68,NE,44,0.0,0.0,85,0.00,,,0.00,WUHU216WMR968SP,2013-08-24 07:17:00,
2013-08-24 02:22:00,72.1,66.2,29.68,NE,35,0.0,0.0,85,0.00,,,0.00,WUHU216WMR968SP,2013-08-24 07:22:00,
2013-08-24 02:27:00,72.1,68.0,29.68,North,357,0.0,0.0,86,0.00,,,0.00,WUHU216WMR968SP,2013-08-24 07:27:00,
2013-08-24 02:32:00,72.1,68.0,29.68,North,357,0.0,0.0,86,0.00,,,0.00,WUHU216WMR968SP,2013-08-24 07:32:00,
2013-08-24 02:37:00,72.3,68.0,29.68,North,0,0.0,0.0,86,0.00,,,0.00,WUHU216WMR968SP,2013-08-24 07:37:00,
2013-08-24 02:42:00,72.5,68.0,29.68,North,0,0.0,0.0,86,0.00,,,0.00,WUHU216WMR968SP,2013-08-24 07:42:00,
2013-08-24 02:47:00,72.7,68.0,29.68,North,0,0.0,0.0,86,0.00,,,0.00,WUHU216WMR968SP,2013-08-24 07:47:00,
2013-08-24 02:52:00,72.5,68.0,29.68,North,0,0.0,0.0,86,0.00,,,0.00,WUHU216WMR968SP,2013-08-24 07:52:00,
2013-08-24 02:57:00,72.5,68.0,29.68,North,0,0.0,0.0,85,0.00,,,0.00,WUHU216WMR968SP,2013-08-24 07:57:00,
2013-08-24 03:02:00,72.3,66.2,29.68,North,0,0.0,0.0,85,0.00,,,0.00,WUHU216WMR968SP,2013-08-24 08:02:00,
2013-08-24 03:07:00,72.1,66.2,29.68,North,0,0.0,0.0,85,0.00,,,0.00,WUHU216WMR968SP,2013-08-24 08:07:00,
2013-08-24 03:12:00,72.1,66.2,29.68,North,0,0.0,0.0,85,0.00,,,0.00,WUHU216WMR968SP,2013-08-24 08:12:00,
2013-08-24 03:17:00,72.0,66.2,29.68,North,0,0.0,0.0,85,0.00,,,0.00,WUHU216WMR968SP,2013-08-24 08:17:00,
2013-08-24 03:22:00,72.0,68.0,29.68,North,0,0.0,0.0,86,0.00,,,0.00,WUHU216WMR968SP,2013-08-24 08:22:00,
2013-08-24 03:27:00,71.8,68.0,29.68,North,0,0.0,0.0,86,0.00,,,0.00,WUHU216WMR968SP,2013-08-24 08:27:00,
2013-08-24 03:32:00,71.6,68.0,29.68,North,0,0.0,0.0,86,0.00,,,0.00,WUHU216WMR968SP,2013-08-24 08:32:00,
2013-08-24 03:37:00,71.4,68.0,29.68,North,0,0.0,0.0,86,0.00,,,0.00,WUHU216WMR968SP,2013-08-24 08:37:00,
2013-08-24 03:42:00,71.4,68.0,29.68,North,0,0.0,0.0,87,0.00,,,0.00,WUHU216WMR968SP,2013-08-24 08:42:00,
2013-08-24 03:47:00,71.2,68.0,29.68,North,0,0.0,0.0,87,0.00,,,0.00,WUHU216WMR968SP,2013-08-24 08:47:00,
2013-08-24 03:52:00,71.1,68.0,29.68,North,0,0.0,0.0,87,0.00,,,0.00,WUHU216WMR968SP,2013-08-24 08:52:00,
2013-08-24 03:57:00,71.4,68.0,29.68,North,0,0.0,0.0,88,0.00,,,0.00,WUHU216WMR968SP,2013-08-24 08:57:00,
2013-08-24 04:02:00,71.4,68.0,29.68,North,0,0.0,0.0,88,0.00,,,0.00,WUHU216WMR968SP,2013-08-24 09:02:00,
2013-08-24 04:07:00,71.4,68.0,29.68,North,0,0.0,0.0,88,0.00,,,0.00,WUHU216WMR968SP,2013-08-24 09:07:00,
2013-08-24 04:12:00,71.2,68.0,29.68,North,0,0.0,0.0,88,0.00,,,0.00,WUHU216WMR968SP,2013-08-24 09:12:00,
2013-08-24 04:17:00,71.1,68.0,29.68,North,0,0.0,0.0,88,0.00,,,0.00,WUHU216WMR968SP,2013-08-24 09:17:00,
2013-08-24 04:22:00,70.9,68.0,29.68,North,0,0.0,0.0,88,0.00,,,0.00,WUHU216WMR968SP,2013-08-24 09:22:00,
2013-08-24 04:27:00,70.7,68.0,29.68,North,0,0.0,0.0,89,0.00,,,0.00,WUHU216WMR968SP,2013-08-24 09:27:00,
2013-08-24 04:32:00,70.7,68.0,29.68,North,0,0.0,0.0,89,0.00,,,0.00,WUHU216WMR968SP,2013-08-24 09:32:00,
2013-08-24 04:37:00,70.7,68.0,29.68,North,0,0.0,0.0,89,0.00,,,0.00,WUHU216WMR968SP,2013-08-24 09:37:00,
2013-08-24 04:42:00,70.7,68.0,29.68,North,0,0.0,0.0,89,0.00,,,0.00,WUHU216WMR968SP,2013-08-24 09:42:00,
2013-08-24 04:47:00,70.7,68.0,29.68,North,0,0.0,0.0,89,0.00,,,0.00,WUHU216WMR968SP,2013-08-24 09:47:00,
2013-08-24 04:52:00,70.7,68.0,29.68,North,0,0.0,0.0,89,0.00,,,0.00,WUHU216WMR968SP,2013-08-24 09:52:00,
2013-08-24 04:57:00,70.9,68.0,29.68,North,0,0.0,0.0,89,0.00,,,0.00,WUHU216WMR968SP,2013-08-24 09:57:00,
2013-08-24 05:02:00,70.9,68.0,29.68,North,0,0.0,0.0,89,0.00,,,0.00,WUHU216WMR968SP,2013-08-24 10:02:00,
2013-08-24 05:07:00,70.9,68.0,29.68,North,0,0.0,0.0,89,0.00,,,0.00,WUHU216WMR968SP,2013-08-24 10:07:00,
2013-08-24 05:12:00,70.5,66.2,29.68,North,0,0.0,0.0,89,0.00,,,0.00,WUHU216WMR968SP,2013-08-24 10:12:00,
2013-08-24 05:17:00,70.3,66.2,29.68,North,0,0.0,0.0,89,0.00,,,0.00,WUHU216WMR968SP,2013-08-24 10:17:00,
2013-08-24 05:22:00,70.2,66.2,29.68,North,0,0.0,0.0,89,0.00,,,0.00,WUHU216WMR968SP,2013-08-24 10:22:00,
2013-08-24 05:27:00,70.0,66.2,29.68,North,0,0.0,0.0,89,0.00,,,0.00,WUHU216WMR968SP,2013-08-24 10:27:00,
2013-08-24 05:32:00,70.0,66.2,29.68,North,0,0.0,0.0,89,0.00,,,0.00,WUHU216WMR968SP,2013-08-24 10:32:00,
2013-08-24 05:37:00,70.2,66.2,29.68,North,0,0.0,0.0,90,0.00,,,0.00,WUHU216WMR968SP,2013-08-24 10:37:00,
2013-08-24 05:42:00,70.2,66.2,29.71,North,0,0.0,0.0,90,0.00,,,0.00,WUHU216WMR968SP,2013-08-24 10:42:00,
2013-08-24 05:47:00,70.2,66.2,29.71,North,0,0.0,0.0,90,0.00,,,0.00,WUHU216WMR968SP,2013-08-24 10:47:00,
2013-08-24 05:52:00,70.2,66.2,29.71,North,0,0.0,0.0,90,0.00,,,0.00,WUHU216WMR968SP,2013-08-24 10:52:00,
2013-08-24 05:57:00,70.2,66.2,29.71,North,0,0.0,0.0,90,0.00,,,0.00,WUHU216WMR968SP,2013-08-24 10:57:00,
2013-08-24 06:02:00,70.2,66.2,29.71,North,0,0.0,0.0,90,0.00,,,0.00,WUHU216WMR968SP,2013-08-24 11:02:00,
2013-08-24 06:07:00,70.0,66.2,29.71,North,0,0.0,0.0,90,0.00,,,0.00,WUHU216WMR968SP,2013-08-24 11:07:00,
2013-08-24 06:12:00,70.0,66.2,29.71,North,0,0.0,0.0,90,0.00,,,0.00,WUHU216WMR968SP,2013-08-24 11:12:00,
2013-08-24 06:17:00,70.2,66.2,29.71,North,0,0.0,0.0,91,0.00,,,0.00,WUHU216WMR968SP,2013-08-24 11:17:00,
2013-08-24 06:22:00,70.2,66.2,29.71,North,0,0.0,0.0,91,0.00,,,0.00,WUHU216WMR968SP,2013-08-24 11:22:00,
2013-08-24 06:27:00,70.2,66.2,29.71,North,0,0.0,0.0,91,0.00,,,0.00,WUHU216WMR968SP,2013-08-24 11:27:00,
2013-08-24 06:32:00,70.2,66.2,29.71,North,0,0.0,0.0,91,0.00,,,0.00,WUHU216WMR968SP,2013-08-24 11:32:00,
2013-08-24 06:37:00,70.2,66.2,29.71,North,0,0.0,0.0,91,0.00,,,0.00,WUHU216WMR968SP,2013-08-24 11:37:00,
2013-08-24 06:42:00,70.2,66.2,29.71,North,0,0.0,0.0,91,0.00,,,0.00,WUHU216WMR968SP,2013-08-24 11:42:00,
2013-08-24 06:47:00,70.3,66.2,29.71,North,0,0.0,0.0,91,0.00,,,0.00,WUHU216WMR968SP,2013-08-24 11:47:00,
2013-08-24 06:52:00,70.3,66.2,29.71,North,0,0.0,0.0,91,0.00,,,0.00,WUHU216WMR968SP,2013-08-24 11:52:00,
2013-08-24 06:57:00,70.5,66.2,29.71,North,0,0.0,0.0,91,0.00,,,0.00,WUHU216WMR968SP,2013-08-24 11:57:00,
2013-08-24 07:02:00,70.7,68.0,29.71,North,0,0.0,0.0,91,0.00,,,0.00,WUHU216WMR968SP,2013-08-24 12:02:00,
2013-08-24 07:07:00,71.1,68.0,29.71,North,0,0.0,0.0,91,0.00,,,0.00,WUHU216WMR968SP,2013-08-24 12:07:00,
2013-08-24 07:12:00,71.4,68.0,29.74,North,0,0.0,0.0,91,0.00,,,0.00,WUHU216WMR968SP,2013-08-24 12:12:00,
2013-08-24 07:17:00,72.0,68.0,29.74,NNW,338,0.0,3.1,91,0.00,,,0.00,WUHU216WMR968SP,2013-08-24 12:17:00,
2013-08-24 07:22:00,72.0,68.0,29.74,North,357,0.0,4.0,91,0.00,,,0.00,WUHU216WMR968SP,2013-08-24 12:22:00,
2013-08-24 07:27:00,72.0,68.0,29.74,NNW,334,0.0,4.0,91,0.00,,,0.00,WUHU216WMR968SP,2013-08-24 12:27:00,
2013-08-24 07:32:00,72.3,68.0,29.74,North,11,2.2,4.0,91,0.00,,,0.00,WUHU216WMR968SP,2013-08-24 12:32:00,
2013-08-24 07:37:00,72.5,69.8,29.74,North,2,2.2,4.0,91,0.00,,,0.00,WUHU216WMR968SP,2013-08-24 12:37:00,
2013-08-24 07:42:00,73.0,69.8,29.74,NNE,18,0.0,4.0,91,0.00,,,0.00,WUHU216WMR968SP,2013-08-24 12:42:00,
2013-08-24 07:47:00,73.4,69.8,29.74,NNE,18,0.0,4.0,91,0.00,,,0.00,WUHU216WMR968SP,2013-08-24 12:47:00,
2013-08-24 07:52:00,74.1,69.8,29.74,NNE,18,0.0,0.0,90,0.00,,,0.00,WUHU216WMR968SP,2013-08-24 12:52:00,
2013-08-24 07:57:00,74.8,71.6,29.74,WNW,288,0.0,0.0,89,0.00,,,0.00,WUHU216WMR968SP,2013-08-24 12:57:00,
2013-08-24 08:02:00,75.0,71.6,29.74,WNW,288,0.0,0.0,88,0.00,,,0.00,WUHU216WMR968SP,2013-08-24 13:02:00,
2013-08-24 08:07:00,75.7,69.8,29.74,WNW,288,0.0,0.0,85,0.00,,,0.00,WUHU216WMR968SP,2013-08-24 13:07:00,
2013-08-24 08:12:00,76.1,71.6,29.74,WNW,288,0.0,0.0,84,0.00,,,0.00,WUHU216WMR968SP,2013-08-24 13:12:00,
2013-08-24 08:17:00,76.5,71.6,29.74,North,0,0.0,0.0,83,0.00,,,0.00,WUHU216WMR968SP,2013-08-24 13:17:00,
2013-08-24 08:22:00,77.0,69.8,29.74,NNE,23,0.0,2.2,79,0.00,,,0.00,WUHU216WMR968SP,2013-08-24 13:22:00,
2013-08-24 08:27:00,77.4,68.0,29.74,NNE,23,0.0,2.2,75,0.00,,,0.00,WUHU216WMR968SP,2013-08-24 13:27:00,
2013-08-24 08:32:00,78.3,68.0,29.74,NNE,23,0.0,0.0,69,0.00,,,0.00,WUHU216WMR968SP,2013-08-24 13:32:00,
2013-08-24 08:37:00,79.0,66.2,29.74,NNE,23,0.0,0.0,64,0.00,,,0.00,WUHU216WMR968SP,2013-08-24 13:37:00,
2013-08-24 08:42:00,79.7,66.2,29.74,NNE,23,0.0,0.0,62,0.00,,,0.00,WUHU216WMR968SP,2013-08-24 13:42:00,
2013-08-24 08:47:00,80.4,64.4,29.74,NNE,23,0.0,0.0,57,0.00,,,0.00,WUHU216WMR968SP,2013-08-24 13:47:00,
2013-08-24 08:52:00,81.1,62.6,29.74,NE,36,0.0,2.7,53,0.00,,,0.00,WUHU216WMR968SP,2013-08-24 13:52:00,
2013-08-24 08:57:00,81.9,62.6,29.74,NE,36,0.0,2.7,52,0.00,,,0.00,WUHU216WMR968SP,2013-08-24 13:57:00,
2013-08-24 09:02:00,82.6,60.8,29.74,NE,36,0.0,0.0,48,0.00,,,0.00,WUHU216WMR968SP,2013-08-24 14:02:00,
2013-08-24 09:07:00,83.1,60.8,29.74,NE,36,0.0,0.0,48,0.00,,,0.00,WUHU216WMR968SP,2013-08-24 14:07:00,
2013-08-24 09:12:00,83.5,60.8,29.74,NNW,343,0.0,3.1,46,0.00,,,0.00,WUHU216WMR968SP,2013-08-24 14:12:00,
2013-08-24 09:17:00,82.6,59.0,29.74,NNW,343,0.0,3.1,45,0.00,,,0.00,WUHU216WMR968SP,2013-08-24 14:17:00,
2013-08-24 09:22:00,83.5,60.8,29.74,NNW,343,0.0,2.7,45,0.00,,,0.00,WUHU216WMR968SP,2013-08-24 14:22:00,
2013-08-24 09:27:00,84.2,60.8,29.74,North,11,2.2,2.7,44,0.00,,,0.00,WUHU216WMR968SP,2013-08-24 14:27:00,
2013-08-24 09:32:00,84.7,59.0,29.74,NNW,331,2.7,3.6,43,0.00,,,0.00,WUHU216WMR968SP,2013-08-24 14:32:00,
2013-08-24 09:37:00,85.3,60.8,29.74,SE,143,0.0,3.6,42,0.00,,,0.00,WUHU216WMR968SP,2013-08-24 14:37:00,
2013-08-24 09:42:00,85.6,60.8,29.74,SE,131,0.0,3.6,42,0.00,,,0.00,WUHU216WMR968SP,2013-08-24 14:42:00,
2013-08-24 09:47:00,85.6,59.0,29.74,NNE,12,0.0,2.2,41,0.00,,,0.00,WUHU216WMR968SP,2013-08-24 14:47:00,
2013-08-24 09:52:00,86.4,60.8,29.74,SSE,147,0.0,2.2,42,0.00,,,0.00,WUHU216WMR968SP,2013-08-24 14:52:00,
2013-08-24 09:57:00,86.9,59.0,29.74,East,97,2.2,3.6,39,0.00,,,0.00,WUHU216WMR968SP,2013-08-24 14:57:00,
2013-08-24 10:02:00,87.4,59.0,29.74,East,101,0.0,3.6,39,0.00,,,0.00,WUHU216WMR968SP,2013-08-24 15:02:00,
2013-08-24 10:07:00,88.0,59.0,29.74,ESE,103,3.1,4.0,37,0.00,,,0.00,WUHU216WMR968SP,2013-08-24 15:07:00,
2013-08-24 10:12:00,88.5,59.0,29.77,South,187,0.0,4.0,37,0.00,,,0.00,WUHU216WMR968SP,2013-08-24 15:12:00,
2013-08-24 10:17:00,88.5,57.2,29.77,South,184,0.0,3.6,35,0.00,,,0.00,WUHU216WMR968SP,2013-08-24 15:17:00,
2013-08-24 10:22:00,88.3,59.0,29.77,ESE,112,0.0,3.6,38,0.00,,,0.00,WUHU216WMR968SP,2013-08-24 15:22:00,
2013-08-24 10:27:00,88.7,59.0,29.77,North,11,0.0,3.6,35,0.00,,,0.00,WUHU216WMR968SP,2013-08-24 15:27:00,
2013-08-24 10:32:00,88.7,59.0,29.77,ESE,104,0.0,3.6,35,0.00,,,0.00,WUHU216WMR968SP,2013-08-24 15:32:00,
2013-08-24 10:37:00,89.6,57.2,29.77,North,10,0.0,3.6,33,0.00,,,0.00,WUHU216WMR968SP,2013-08-24 15:37:00,
2013-08-24 10:42:00,90.1,55.4,29.77,ESE,121,2.2,4.0,31,0.00,,,0.00,WUHU216WMR968SP,2013-08-24 15:42:00,
2013-08-24 10:47:00,90.7,55.4,29.77,SSE,153,3.1,5.4,30,0.00,,,0.00,WUHU216WMR968SP,2013-08-24 15:47:00,
2013-08-24 10:52:00,90.9,55.4,29.77,North,0,0.0,5.4,30,0.00,,,0.00,WUHU216WMR968SP,2013-08-24 15:52:00,
2013-08-24 10:57:00,90.1,53.6,29.77,NNW,344,0.0,3.1,30,0.00,,,0.00,WUHU216WMR968SP,2013-08-24 15:57:00,
2013-08-24 11:02:00,89.2,55.4,29.77,NNE,14,0.0,2.2,31,0.00,,,0.00,WUHU216WMR968SP,2013-08-24 16:02:00,
2013-08-24 11:07:00,88.9,55.4,29.77,NNE,14,0.0,0.0,31,0.00,,,0.00,WUHU216WMR968SP,2013-08-24 16:07:00,
2013-08-24 11:12:00,88.5,53.6,29.74,North,10,0.0,2.7,31,0.00,,,0.00,WUHU216WMR968SP,2013-08-24 16:12:00,
2013-08-24 11:17:00,88.9,55.4,29.74,North,10,0.0,2.7,31,0.00,,,0.00,WUHU216WMR968SP,2013-08-24 16:17:00,
2013-08-24 11:22:00,89.6,53.6,29.74,North,5,0.0,3.1,29,0.00,,,0.00,WUHU216WMR968SP,2013-08-24 16:22:00,
2013-08-24 11:27:00,89.4,53.6,29.74,NNE,16,0.0,3.1,29,0.00,,,0.00,WUHU216WMR968SP,2013-08-24 16:27:00,
2013-08-24 11:32:00,90.5,53.6,29.74,NNE,15,0.0,3.1,28,0.00,,,0.00,WUHU216WMR968SP,2013-08-24 16:32:00,
2013-08-24 11:37:00,91.4,53.6,29.74,NNE,32,0.0,4.0,28,0.00,,,0.00,WUHU216WMR968SP,2013-08-24 16:37:00,
2013-08-24 11:42:00,91.9,53.6,29.74,SE,126,0.0,4.0,27,0.00,,,0.00,WUHU216WMR968SP,2013-08-24 16:42:00,
2013-08-24 11:47:00,92.7,55.4,29.74,SSE,150,0.0,3.6,28,0.00,,,0.00,WUHU216WMR968SP,2013-08-24 16:47:00,
2013-08-24 11:52:00,93.6,53.6,29.74,NNE,12,3.1,4.9,26,0.00,,,0.00,WUHU216WMR968SP,2013-08-24 16:52:00,
2013-08-24 11:57:00,93.9,50.0,29.74,East,84,4.0,6.3,23,0.00,,,0.00,WUHU216WMR968SP,2013-08-24 16:57:00,
2013-08-24 12:02:00,93.7,53.6,29.74,ESE,112,0.0,6.3,26,0.00,,,0.00,WUHU216WMR968SP,2013-08-24 17:02:00,
2013-08-24 12:07:00,94.6,51.8,29.74,ENE,66,2.2,8.1,23,0.00,,,0.00,WUHU216WMR968SP,2013-08-24 17:07:00,
2013-08-24 12:12:00,93.4,46.4,29.74,ENE,65,2.9,8.1,20,0.00,,,0.00,WUHU216WMR968SP,2013-08-24 17:12:00,
2013-08-24 12:17:00,92.3,48.2,29.74,East,89,2.7,5.8,22,0.00,,,0.00,WUHU216WMR968SP,2013-08-24 17:17:00,
2013-08-24 12:22:00,93.4,48.2,29.74,NE,40,2.2,4.0,22,0.00,,,0.00,WUHU216WMR968SP,2013-08-24 17:22:00,
2013-08-24 12:27:00,93.0,48.2,29.74,North,1,2.7,6.3,22,0.00,,,0.00,WUHU216WMR968SP,2013-08-24 17:27:00,
2013-08-24 12:32:00,92.8,48.2,29.74,NNE,19,4.0,8.7,21,0.00,,,0.00,WUHU216WMR968SP,2013-08-24 17:32:00,
2013-08-24 12:37:00,92.3,48.2,29.74,East,95,2.2,8.7,21,0.00,,,0.00,WUHU216WMR968SP,2013-08-24 17:37:00,
2013-08-24 12:42:00,91.9,48.2,29.74,SE,132,2.2,8.3,23,0.00,,,0.00,WUHU216WMR968SP,2013-08-24 17:42:00,
2013-08-24 12:47:00,92.3,48.2,29.74,NE,38,2.7,6.3,21,0.00,,,0.00,WUHU216WMR968SP,2013-08-24 17:47:00,
2013-08-24 12:52:00,93.0,46.4,29.74,ESE,107,3.5,6.3,20,0.00,,,0.00,WUHU216WMR968SP,2013-08-24 17:52:00,
2013-08-24 12:57:00,92.7,48.2,29.74,NNE,13,2.7,5.4,21,0.00,,,0.00,WUHU216WMR968SP,2013-08-24 17:57:00,
2013-08-24 13:02:00,92.5,50.0,29.74,SSE,155,0.0,5.4,23,0.00,,,0.00,WUHU216WMR968SP,2013-08-24 18:02:00,
2013-08-24 13:07:00,92.1,46.4,29.74,ENE,65,2.7,4.0,21,0.00,,,0.00,WUHU216WMR968SP,2013-08-24 18:07:00,
2013-08-24 13:12:00,92.5,50.0,29.74,ENE,71,3.0,4.0,23,0.00,,,0.00,WUHU216WMR968SP,2013-08-24 18:12:00,
2013-08-24 13:17:00,93.6,48.2,29.74,NNE,12,2.2,6.3,21,0.00,,,0.00,WUHU216WMR968SP,2013-08-24 18:17:00,
2013-08-24 13:22:00,94.1,46.4,29.74,SE,127,2.2,6.3,19,0.00,,,0.00,WUHU216WMR968SP,2013-08-24 18:22:00,
2013-08-24 13:27:00,93.9,48.2,29.74,NNW,341,2.7,5.8,21,0.00,,,0.00,WUHU216WMR968SP,2013-08-24 18:27:00,
2013-08-24 13:32:00,93.4,46.4,29.74,NW,310,0.0,5.8,20,0.00,,,0.00,WUHU216WMR968SP,2013-08-24 18:32:00,
2013-08-24 13:37:00,93.0,46.4,29.74,NE,47,2.9,5.8,20,0.00,,,0.00,WUHU216WMR968SP,2013-08-24 18:37:00,
2013-08-24 13:42:00,92.7,48.2,29.71,NNE,19,2.2,8.1,21,0.00,,,0.00,WUHU216WMR968SP,2013-08-24 18:42:00,
2013-08-24 13:47:00,93.4,48.2,29.71,East,82,2.7,8.1,21,0.00,,,0.00,WUHU216WMR968SP,2013-08-24 18:47:00,
2013-08-24 13:52:00,93.7,46.4,29.71,NNE,19,3.6,6.3,20,0.00,,,0.00,WUHU216WMR968SP,2013-08-24 18:52:00,
2013-08-24 13:57:00,92.8,48.2,29.71,NNE,23,2.2,6.3,21,0.00,,,0.00,WUHU216WMR968SP,2013-08-24 18:57:00,
2013-08-24 14:02:00,92.5,50.0,29.71,NNE,29,2.7,6.3,23,0.00,,,0.00,WUHU216WMR968SP,2013-08-24 19:02:00,
2013-08-24 14:07:00,93.0,51.8,29.71,NNE,13,2.2,6.3,25,0.00,,,0.00,WUHU216WMR968SP,2013-08-24 19:07:00,
2013-08-24 14:12:00,93.2,48.2,29.71,ENE,78,2.8,6.3,21,0.00,,,0.00,WUHU216WMR968SP,2013-08-24 19:12:00,
2013-08-24 14:17:00,93.2,46.4,29.71,North,357,2.2,6.3,20,0.00,,,0.00,WUHU216WMR968SP,2013-08-24 19:17:00,
2013-08-24 14:22:00,93.4,46.4,29.71,North,358,4.3,7.2,20,0.00,,,0.00,WUHU216WMR968SP,2013-08-24 19:22:00,
2013-08-24 14:27:00,93.9,46.4,29.71,NE,42,2.9,8.1,20,0.00,,,0.00,WUHU216WMR968SP,2013-08-24 19:27:00,
2013-08-24 14:32:00,93.7,44.6,29.71,ESE,106,3.6,8.1,19,0.00,,,0.00,WUHU216WMR968SP,2013-08-24 19:32:00,
2013-08-24 14:37:00,93.4,44.6,29.71,NW,312,3.1,6.3,19,0.00,,,0.00,WUHU216WMR968SP,2013-08-24 19:37:00,
2013-08-24 14:42:00,93.0,44.6,29.71,SSE,162,0.0,5.4,19,0.00,,,0.00,WUHU216WMR968SP,2013-08-24 19:42:00,
2013-08-24 14:47:00,93.6,42.8,29.71,NNW,348,2.7,4.0,18,0.00,,,0.00,WUHU216WMR968SP,2013-08-24 19:47:00,
2013-08-24 14:52:00,93.6,46.4,29.71,NNE,22,2.7,5.8,20,0.00,,,0.00,WUHU216WMR968SP,2013-08-24 19:52:00,
2013-08-24 14:57:00,93.6,46.4,29.71,East,82,3.6,5.8,20,0.00,,,0.00,WUHU216WMR968SP,2013-08-24 19:57:00,
2013-08-24 15:02:00,93.4,44.6,29.71,NNE,14,3.1,5.8,19,0.00,,,0.00,WUHU216WMR968SP,2013-08-24 20:02:00,
2013-08-24 15:07:00,92.8,46.4,29.71,NNE,29,3.6,6.3,20,0.00,,,0.00,WUHU216WMR968SP,2013-08-24 20:07:00,
2013-08-24 15:12:00,92.3,46.4,29.71,ENE,66,0.0,6.3,20,0.00,,,0.00,WUHU216WMR968SP,2013-08-24 20:12:00,
2013-08-24 15:17:00,92.5,46.4,29.71,NE,54,2.2,5.8,20,0.00,,,0.00,WUHU216WMR968SP,2013-08-24 20:17:00,
2013-08-24 15:22:00,93.2,46.4,29.71,NE,44,4.9,8.7,20,0.00,,,0.00,WUHU216WMR968SP,2013-08-24 20:22:00,
2013-08-24 15:27:00,93.0,46.4,29.71,NE,34,3.7,8.7,20,0.00,,,0.00,WUHU216WMR968SP,2013-08-24 20:27:00,
2013-08-24 15:32:00,92.3,46.4,29.71,North,0,3.1,8.7,20,0.00,,,0.00,WUHU216WMR968SP,2013-08-24 20:32:00,
2013-08-24 15:37:00,91.9,46.4,29.71,NE,46,2.7,6.3,22,0.00,,,0.00,WUHU216WMR968SP,2013-08-24 20:37:00,
2013-08-24 15:42:00,92.3,48.2,29.71,East,88,2.2,5.4,22,0.00,,,0.00,WUHU216WMR968SP,2013-08-24 20:42:00,
2013-08-24 15:47:00,92.7,48.2,29.71,NNE,26,3.6,7.6,22,0.00,,,0.00,WUHU216WMR968SP,2013-08-24 20:47:00,
2013-08-24 15:52:00,92.5,48.2,29.71,North,359,2.9,8.3,22,0.00,,,0.00,WUHU216WMR968SP,2013-08-24 20:52:00,
2013-08-24 15:57:00,92.3,50.0,29.71,NE,34,3.5,8.3,23,0.00,,,0.00,WUHU216WMR968SP,2013-08-24 20:57:00,
2013-08-24 16:02:00,92.5,51.8,29.71,North,353,2.7,8.7,24,0.00,,,0.00,WUHU216WMR968SP,2013-08-24 21:02:00,
2013-08-24 16:07:00,92.8,51.8,29.71,NE,48,2.5,8.7,24,0.00,,,0.00,WUHU216WMR968SP,2013-08-24 21:07:00,
2013-08-24 16:12:00,93.4,48.2,29.71,NNE,29,3.1,7.6,22,0.00,,,0.00,WUHU216WMR968SP,2013-08-24 21:12:00,
2013-08-24 16:17:00,92.8,48.2,29.71,North,11,4.0,6.3,22,0.00,,,0.00,WUHU216WMR968SP,2013-08-24 21:17:00,
2013-08-24 16:22:00,91.9,50.0,29.71,NE,41,2.7,7.2,24,0.00,,,0.00,WUHU216WMR968SP,2013-08-24 21:22:00,
2013-08-24 16:27:00,90.9,51.8,29.71,East,96,2.5,7.2,26,0.00,,,0.00,WUHU216WMR968SP,2013-08-24 21:27:00,
2013-08-24 16:32:00,90.3,51.8,29.71,NE,41,2.9,6.3,27,0.00,,,0.00,WUHU216WMR968SP,2013-08-24 21:32:00,
2013-08-24 16:37:00,90.5,53.6,29.71,NNE,14,3.1,6.3,27,0.00,,,0.00,WUHU216WMR968SP,2013-08-24 21:37:00,
2013-08-24 16:42:00,90.9,53.6,29.68,NE,49,3.6,5.8,27,0.00,,,0.00,WUHU216WMR968SP,2013-08-24 21:42:00,
2013-08-24 16:47:00,90.9,53.6,29.68,ENE,63,3.6,5.8,28,0.00,,,0.00,WUHU216WMR968SP,2013-08-24 21:47:00,
2013-08-24 16:52:00,91.4,53.6,29.68,East,85,3.5,6.3,27,0.00,,,0.00,WUHU216WMR968SP,2013-08-24 21:52:00,
2013-08-24 16:57:00,91.4,53.6,29.68,NNE,15,3.6,6.3,27,0.00,,,0.00,WUHU216WMR968SP,2013-08-24 21:57:00,
2013-08-24 17:02:00,91.2,53.6,29.68,North,8,2.2,5.8,28,0.00,,,0.00,WUHU216WMR968SP,2013-08-24 22:02:00,
2013-08-24 17:07:00,91.4,53.6,29.68,ENE,57,2.7,4.0,27,0.00,,,0.00,WUHU216WMR968SP,2013-08-24 22:07:00,
2013-08-24 17:12:00,91.4,51.8,29.71,ENE,65,3.1,4.9,26,0.00,,,0.00,WUHU216WMR968SP,2013-08-24 22:12:00,
2013-08-24 17:17:00,91.8,51.8,29.71,ENE,75,3.0,4.9,26,0.00,,,0.00,WUHU216WMR968SP,2013-08-24 22:17:00,
2013-08-24 17:22:00,92.1,51.8,29.71,NNE,21,4.0,8.3,26,0.00,,,0.00,WUHU216WMR968SP,2013-08-24 22:22:00,
2013-08-24 17:27:00,91.9,53.6,29.68,NNE,15,3.6,8.3,27,0.00,,,0.00,WUHU216WMR968SP,2013-08-24 22:27:00,
2013-08-24 17:32:00,91.8,53.6,29.68,ENE,69,0.0,6.3,27,0.00,,,0.00,WUHU216WMR968SP,2013-08-24 22:32:00,
2013-08-24 17:37:00,90.7,53.6,29.68,NNE,25,4.5,6.3,27,0.00,,,0.00,WUHU216WMR968SP,2013-08-24 22:37:00,
2013-08-24 17:42:00,90.0,51.8,29.71,NE,50,3.6,7.6,28,0.00,,,0.00,WUHU216WMR968SP,2013-08-24 22:42:00,
2013-08-24 17:47:00,89.6,51.8,29.71,NNE,16,3.1,7.6,28,0.00,,,0.00,WUHU216WMR968SP,2013-08-24 22:47:00,
2013-08-24 17:52:00,89.6,51.8,29.71,North,5,2.2,4.9,28,0.00,,,0.00,WUHU216WMR968SP,2013-08-24 22:52:00,
2013-08-24 17:57:00,89.4,53.6,29.71,ENE,72,0.0,4.0,29,0.00,,,0.00,WUHU216WMR968SP,2013-08-24 22:57:00,
2013-08-24 18:02:00,86.9,51.8,29.71,North,0,6.7,10.1,29,0.00,,,0.00,WUHU216WMR968SP,2013-08-24 23:02:00,
2013-08-24 18:07:00,81.0,57.2,29.71,NNE,27,5.4,12.8,44,0.00,,,0.00,WUHU216WMR968SP,2013-08-24 23:07:00,
2013-08-24 18:12:00,78.1,62.6,29.71,NW,325,6.7,12.8,59,0.00,,,0.00,WUHU216WMR968SP,2013-08-24 23:12:00,
2013-08-24 18:17:00,77.2,66.2,29.71,NNW,341,2.8,8.1,70,0.00,,,0.00,WUHU216WMR968SP,2013-08-24 23:17:00,
2013-08-24 18:22:00,76.6,68.0,29.71,NNW,341,0.0,6.7,75,0.00,,,0.00,WUHU216WMR968SP,2013-08-24 23:22:00,
2013-08-24 18:27:00,76.3,69.8,29.71,NNW,341,0.0,0.0,76,0.00,,,0.00,WUHU216WMR968SP,2013-08-24 23:27:00,
2013-08-24 18:32:00,76.1,69.8,29.71,NNW,341,0.0,0.0,78,0.00,,,0.00,WUHU216WMR968SP,2013-08-24 23:32:00,
2013-08-24 18:37:00,76.5,69.8,29.71,NNW,341,0.0,0.0,79,0.00,,,0.00,WUHU216WMR968SP,2013-08-24 23:37:00,
2013-08-24 18:42:00,76.6,71.6,29.71,NNW,341,0.0,0.0,81,0.00,,,0.00,WUHU216WMR968SP,2013-08-24 23:42:00,
2013-08-24 18:47:00,76.3,71.6,29.71,South,188,2.2,3.1,82,0.00,,,0.00,WUHU216WMR968SP,2013-08-24 23:47:00,
2013-08-24 18:52:00,75.9,69.8,29.71,South,188,0.0,3.1,83,0.00,,,0.00,WUHU216WMR968SP,2013-08-24 23:52:00,
2013-08-24 18:57:00,75.9,69.8,29.71,South,188,0.0,2.7,84,0.00,,,0.00,WUHU216WMR968SP,2013-08-24 23:57:00,
2013-08-24 19:02:00,75.7,69.8,29.71,South,188,0.0,0.0,85,0.00,,,0.00,WUHU216WMR968SP,2013-08-25 00:02:00,
2013-08-24 19:07:00,75.9,69.8,29.71,South,188,0.0,0.0,86,0.00,,,0.00,WUHU216WMR968SP,2013-08-25 00:07:00,
2013-08-24 19:12:00,76.1,73.4,29.71,South,188,0.0,0.0,87,0.00,,,0.00,WUHU216WMR968SP,2013-08-25 00:12:00,
2013-08-24 19:17:00,76.1,73.4,29.71,South,188,0.0,2.2,87,0.00,,,0.00,WUHU216WMR968SP,2013-08-25 00:17:00,
2013-08-24 19:22:00,76.1,73.4,29.71,South,188,0.0,2.2,88,0.00,,,0.00,WUHU216WMR968SP,2013-08-25 00:22:00,
2013-08-24 19:27:00,76.1,73.4,29.71,South,188,0.0,2.2,88,0.00,,,0.00,WUHU216WMR968SP,2013-08-25 00:27:00,
2013-08-24 19:32:00,76.1,73.4,29.71,South,188,0.0,2.2,89,0.00,,,0.00,WUHU216WMR968SP,2013-08-25 00:32:00,
2013-08-24 19:37:00,75.9,71.6,29.71,South,188,0.0,0.0,89,0.00,,,0.00,WUHU216WMR968SP,2013-08-25 00:37:00,
2013-08-24 19:42:00,76.1,73.4,29.74,South,188,0.0,0.0,89,0.00,,,0.00,WUHU216WMR968SP,2013-08-25 00:42:00,
2013-08-24 19:47:00,75.7,71.6,29.74,South,188,0.0,0.0,89,0.00,,,0.00,WUHU216WMR968SP,2013-08-25 00:47:00,
2013-08-24 19:52:00,75.6,71.6,29.74,South,188,0.0,0.0,89,0.00,,,0.00,WUHU216WMR968SP,2013-08-25 00:52:00,
2013-08-24 19:57:00,75.4,71.6,29.74,South,188,0.0,0.0,89,0.00,,,0.00,WUHU216WMR968SP,2013-08-25 00:57:00,
2013-08-24 20:02:00,75.2,71.6,29.74,South,188,0.0,0.0,89,0.00,,,0.00,WUHU216WMR968SP,2013-08-25 01:02:00,
2013-08-24 20:07:00,75.2,71.6,29.74,South,188,0.0,0.0,90,0.00,,,0.00,WUHU216WMR968SP,2013-08-25 01:07:00,
2013-08-24 20:12:00,75.4,71.6,29.74,South,188,0.0,0.0,90,0.00,,,0.00,WUHU216WMR968SP,2013-08-25 01:12:00,
2013-08-24 20:17:00,75.4,71.6,29.74,South,188,0.0,0.0,90,0.00,,,0.00,WUHU216WMR968SP,2013-08-25 01:17:00,
2013-08-24 20:22:00,75.2,71.6,29.74,South,188,0.0,0.0,90,0.00,,,0.00,WUHU216WMR968SP,2013-08-25 01:22:00,
2013-08-24 20:27:00,75.0,71.6,29.74,South,188,0.0,0.0,90,0.00,,,0.00,WUHU216WMR968SP,2013-08-25 01:27:00,
2013-08-24 20:32:00,75.4,71.6,29.74,North,350,0.0,2.2,90,0.00,,,0.00,WUHU216WMR968SP,2013-08-25 01:32:00,
2013-08-24 20:37:00,75.2,71.6,29.74,North,350,0.0,2.2,90,0.00,,,0.00,WUHU216WMR968SP,2013-08-25 01:37:00,
2013-08-24 20:42:00,75.2,71.6,29.74,North,350,0.0,0.0,90,0.00,,,0.00,WUHU216WMR968SP,2013-08-25 01:42:00,
2013-08-24 20:47:00,75.0,71.6,29.74,North,350,0.0,0.0,91,0.00,,,0.00,WUHU216WMR968SP,2013-08-25 01:47:00,
2013-08-24 20:52:00,75.0,71.6,29.74,North,350,0.0,0.0,91,0.00,,,0.00,WUHU216WMR968SP,2013-08-25 01:52:00,
2013-08-24 20:57:00,74.8,71.6,29.74,North,350,0.0,0.0,91,0.00,,,0.00,WUHU216WMR968SP,2013-08-25 01:57:00,
2013-08-24 21:02:00,74.8,71.6,29.74,North,350,0.0,0.0,91,0.00,,,0.00,WUHU216WMR968SP,2013-08-25 02:02:00,
2013-08-24 21:06:00,75.0,71.6,29.74,North,350,0.0,0.0,91,0.00,,,0.00,WUHU216WMR968SP,2013-08-25 02:06:00,
2013-08-24 21:11:00,74.7,71.6,29.74,North,350,0.0,0.0,91,0.00,,,0.00,WUHU216WMR968SP,2013-08-25 02:11:00,
2013-08-24 21:16:00,74.7,71.6,29.74,North,350,0.0,0.0,91,0.00,,,0.00,WUHU216WMR968SP,2013-08-25 02:16:00,
2013-08-24 21:21:00,74.8,71.6,29.74,North,350,0.0,0.0,91,0.00,,,0.00,WUHU216WMR968SP,2013-08-25 02:21:00,
2013-08-24 21:26:00,74.7,71.6,29.74,North,350,0.0,0.0,91,0.00,,,0.00,WUHU216WMR968SP,2013-08-25 02:26:00,
2013-08-24 21:31:00,74.7,71.6,29.74,North,350,0.0,0.0,91,0.00,,,0.00,WUHU216WMR968SP,2013-08-25 02:31:00,
2013-08-24 21:36:00,74.5,71.6,29.74,North,350,0.0,0.0,91,0.00,,,0.00,WUHU216WMR968SP,2013-08-25 02:36:00,
2013-08-24 21:41:00,74.5,71.6,29.74,North,350,0.0,0.0,91,0.00,,,0.00,WUHU216WMR968SP,2013-08-25 02:41:00,
2013-08-24 21:46:00,74.3,71.6,29.74,North,350,0.0,0.0,91,0.00,,,0.00,WUHU216WMR968SP,2013-08-25 02:46:00,
2013-08-24 21:51:00,74.3,71.6,29.74,North,350,0.0,0.0,91,0.00,,,0.00,WUHU216WMR968SP,2013-08-25 02:51:00,
2013-08-24 21:56:00,74.3,71.6,29.77,North,350,0.0,0.0,91,0.00,,,0.00,WUHU216WMR968SP,2013-08-25 02:56:00,
2013-08-24 22:01:00,74.1,69.8,29.77,North,350,0.0,0.0,91,0.00,,,0.00,WUHU216WMR968SP,2013-08-25 03:01:00,
2013-08-24 22:06:00,74.1,69.8,29.77,North,350,0.0,0.0,91,0.00,,,0.00,WUHU216WMR968SP,2013-08-25 03:06:00,
2013-08-24 22:11:00,74.3,71.6,29.77,North,350,0.0,0.0,91,0.00,,,0.00,WUHU216WMR968SP,2013-08-25 03:11:00,
2013-08-24 22:16:00,74.3,73.4,29.77,North,350,0.0,0.0,92,0.00,,,0.00,WUHU216WMR968SP,2013-08-25 03:16:00,
2013-08-24 22:21:00,74.1,71.6,29.77,North,350,0.0,0.0,92,0.00,,,0.00,WUHU216WMR968SP,2013-08-25 03:21:00,
2013-08-24 22:26:00,74.1,71.6,29.77,North,350,0.0,0.0,92,0.00,,,0.00,WUHU216WMR968SP,2013-08-25 03:26:00,
2013-08-24 22:31:00,73.9,71.6,29.77,North,350,0.0,0.0,92,0.00,,,0.00,WUHU216WMR968SP,2013-08-25 03:31:00,
2013-08-24 22:36:00,73.9,71.6,29.77,North,350,0.0,0.0,92,0.00,,,0.00,WUHU216WMR968SP,2013-08-25 03:36:00,
2013-08-24 22:41:00,73.9,71.6,29.77,North,350,0.0,0.0,92,0.00,,,0.00,WUHU216WMR968SP,2013-08-25 03:41:00,
2013-08-24 22:46:00,73.8,71.6,29.77,North,350,0.0,0.0,92,0.00,,,0.00,WUHU216WMR968SP,2013-08-25 03:46:00,
2013-08-24 22:51:00,73.8,71.6,29.77,North,350,0.0,0.0,92,0.00,,,0.00,WUHU216WMR968SP,2013-08-25 03:51:00,
2013-08-24 22:56:00,73.8,71.6,29.77,North,350,0.0,0.0,92,0.00,,,0.00,WUHU216WMR968SP,2013-08-25 03:56:00,
2013-08-24 23:01:00,73.6,71.6,29.77,North,350,0.0,0.0,92,0.00,,,0.00,WUHU216WMR968SP,2013-08-25 04:01:00,
2013-08-24 23:03:00,73.4,71.6,29.77,North,350,0.0,0.0,92,0.00,,,0.00,WUHU216WMR968SP,2013-08-25 04:03:00,
2013-08-24 23:08:00,73.4,71.6,29.77,North,350,0.0,0.0,92,0.00,,,0.00,WUHU216WMR968SP,2013-08-25 04:08:00,
2013-08-24 23:13:00,73.4,71.6,29.77,North,350,0.0,0.0,92,0.00,,,0.00,WUHU216WMR968SP,2013-08-25 04:13:00,
2013-08-24 23:18:00,73.2,71.6,29.77,North,350,0.0,0.0,92,0.00,,,0.00,WUHU216WMR968SP,2013-08-25 04:18:00,
2013-08-24 23:23:00,73.0,71.6,29.77,North,350,0.0,0.0,92,0.00,,,0.00,WUHU216WMR968SP,2013-08-25 04:23:00,
2013-08-24 23:28:00,73.2,71.6,29.77,North,350,0.0,0.0,92,0.00,,,0.00,WUHU216WMR968SP,2013-08-25 04:28:00,
2013-08-24 23:33:00,73.2,71.6,29.77,North,350,0.0,0.0,92,0.00,,,0.00,WUHU216WMR968SP,2013-08-25 04:33:00,
2013-08-24 23:38:00,73.2,71.6,29.77,North,350,0.0,0.0,92,0.00,,,0.00,WUHU216WMR968SP,2013-08-25 04:38:00,
2013-08-24 23:43:00,73.2,71.6,29.77,North,350,0.0,0.0,92,0.00,,,0.00,WUHU216WMR968SP,2013-08-25 04:43:00,
2013-08-24 23:48:00,73.2,71.6,29.77,North,350,0.0,0.0,92,0.00,,,0.00,WUHU216WMR968SP,2013-08-25 04:48:00,
2013-08-24 23:53:00,73.2,71.6,29.77,North,350,0.0,0.0,92,0.00,,,0.00,WUHU216WMR968SP,2013-08-25 04:53:00,
2013-08-24 23:58:00,73.0,71.6,29.77,North,350,0.0,0.0,92,0.00,,,0.00,WUHU216WMR968SP,2013-08-25 04:58:00,